This demonstration page uses our WeatherBlox Daily Observations layout. Learn more.

Left ArrowRight Arrow

Hourly Observations for September 22, 2015

Temp ( °F °C ) Dew Point ( °F °C ) Humidity (%) Winds ( mph kmh ) Pressure ( in mb ) Visibility ( mi km ) Precip ( " mm )
12:59 am 00:59 Cloudy 74 23.3 63 17.2 69 69 NE 13 20 30.09 1019 9 14 0.00 0.00
1:59 am 01:59 Cloudy 74 23.3 64 17.8 71 71 NE 12 19 30.08 1019 9 14 0.00 0.00
2:59 am 02:59 Cloudy 73 22.8 64 17.8 74 74 NE 12 19 30.09 1019 9 14 0.00 0.00
3:59 am 03:59 Cloudy 73 22.8 64 17.8 74 74 NNE 14 22 30.09 1019 9 14 0.00 0.00
4:35 am 04:35 Cloudy 73 22.8 64 17.8 74 74 NNE 13 20 30.09 1019 9 14 0.00 0.00
4:59 am 04:59 Cloudy 73 22.8 65 18.3 76 76 NNE 12 19 30.08 1019 9 14 0.00 0.00
5:59 am 05:59 Cloudy 72 22.2 65 18.3 79 79 NNE 12 19 30.09 1019 9 14 0.00 0.00
6:59 am 06:59 Mostly Cloudy 72 22.2 65 18.3 79 79 NNE 17 28 30.10 1019 9 14 0.00 0.00
7:59 am 07:59 Mostly Cloudy 72 22.2 65 18.3 79 79 NNE 14 22 30.10 1019 8 13 0.00 0.00
8:53 am 08:53 Cloudy 73 23 64 18 74 74 NNE 16 26 30.12 1020 8 13 0.00 0.00
8:59 am 08:59 Cloudy 73 22.8 66 18.9 79 79 NE 15 24 30.12 1020 8 13 0.00 0.00
9:59 am 09:59 Cloudy 73 22.8 66 18.9 79 79 NE 18 30 30.14 1021 7 11 0.00 0.00
10:59 am 10:59 Cloudy 75 23.9 67 19.4 76 76 N 16 26 30.14 1021 7 11 0.00 0.00
11:59 am 11:59 Cloudy 74 23.3 67 19.4 79 79 N 17 28 30.13 1020 7 11 0.00 0.00
12:59 pm 12:59 Cloudy 75 23.9 67 19.4 76 76 NNE 17 28 30.13 1020 7 11 0.00 0.00
1:59 pm 13:59 Cloudy with Light Rain 74 23.3 67 19.4 79 79 N 18 30 30.12 1020 5 8 0.00 0.03
2:59 pm 14:59 Cloudy with Light Rain 73 22.8 67 19.4 81 81 NNE 21 33 30.11 1020 7 11 0.00 0.03
3:59 pm 15:59 Cloudy 74 23.3 66 18.9 76 76 N 14 22 30.11 1020 7 11 0.00 0.03
4:59 pm 16:59 Cloudy 74 23.3 67 19.4 79 79 N 13 20 30.11 1020 7 11 0.00 0.00
5:59 pm 17:59 Mostly Cloudy 75 23.9 67 19.4 76 76 NE 15 24 30.11 1020 7 11 0.00 0.00
6:59 pm 18:59 Cloudy with Light Rain 74 23.3 67 19.4 79 79 NNE 14 22 30.12 1020 7 11 0.00 0.03
7:59 pm 19:59 Cloudy with Light Rain 74 23.3 67 19.4 79 79 NE 16 26 30.12 1020 9 14 0.00 0.03
8:59 pm 20:59 Cloudy 73 22.8 66 18.9 79 79 NNE 15 24 30.12 1020 9 14 0.00 0.03
9:59 pm 21:59 Cloudy 73 22.8 66 18.9 79 79 NNE 13 20 30.13 1020 8 13 0.00 0.00
10:59 pm 22:59 Cloudy 73 22.8 66 18.9 79 79 NNE 17 28 30.14 1021 9 14 0.00 0.00
11:59 pm 23:59 Cloudy 73 22.8 66 18.9 79 79 NNE 15 24 30.14 1021 8 13 0.00 0.00

Powered by AerisWeather